Location: ????????
(48.4751°N, 37.6926°E)
Time: 13:40:26
(UTC+00:00)

CZ-4B R/B - Pass Details

Date: 20 January 2021
Orbit: 387 x 458 km, 97.6° (Epoch: 26 February)

Event Time Altitude Azimuth Distance (km) Brightness Sun altitude
Exits shadow 16:34:38 - 348° (NNW) 1,788 4.5 -23.7°
Reaches altitude 10° 16:35:14 10° 342° (NNW) 1,593 4.3 -23.8°
Maximum altitude 16:37:44 19° 295° (WNW) 1,120 4.0 -24.2°
Drops below altitude 10° 16:40:11 10° 248° (WSW) 1,558 5.1 -24.6°
Sets 16:42:33 0° 230° (SW) 2,407 5.9 -25.0°
